Pittsfield, MA

10:28 PM EDT on October 14, 2019 (GMT -0400)
Pittsfield Municipal

Weather History for KPSF - June, 2019

Change the Weather History Date:

Thursday, June 13, 2019

  Actual Average Record
Temperature  
Mean Temperature 56 °F 63 °F  
Max Temperature 62 °F 74 °F 89 °F (1942)
Min Temperature 51 °F 53 °F 42 °F (1950)
Degree Days  
Heating Degree Days 8 4  
Month to date heating degree days 50 65  
Since 1 June heating degree days 50 65  
Since 1 July heating degree days 6955 7425  
Cooling Degree Days 0 2  
Month to date cooling degree days 1 19  
Year to date cooling degree days 7 32  
Since 1 June cooling degree days 1 19  
Growing Degree Days 6 (Base 50)    
Moisture  
Dew Point 48 °F    
Average Humidity 78    
Maximum Humidity 89    
Minimum Humidity 62    
Precipitation  
Precipitation 0.36 in 0.16 in 1.32 in (2013)
Month to date precipitation 1.91 2.27  
Year to date precipitation 19.63 19.31  
Sea Level Pressure  
Sea Level Pressure 29.84 in    
Wind  
Wind Speed 6 mph ()    
Max Wind Speed 20 mph    
Max Gust Speed 31 mph    
Visibility 9.1 miles    
Events Rain    
T = Trace of Precipitation, MM = Missing Value Source: Averaged Metar Reports

Daily Weather History Graph

Daily Weather History Graph

Search for Another Location

Airport or City:

Astronomy

Jun. 13, 2019 Rise Set
Actual Time 5:15 AM EDT 8:31 PM EDT
Civil Twilight 4:40 AM EDT 9:05 PM EDT
Nautical Twilight 3:56 AM EDT 9:50 PM EDT
Astronomical Twilight 3:01 AM EDT 10:45 PM EDT
Moon 4:37 PM EDT (6/13) 3:05 AM EDT (6/13)
Length of Visible Light 16h 25m
Length of Day
15h 15m
Waxing Gibbous, 85% of the Moon is Illuminated
Jun 13
Waxing Gibbous
Jun 17
Full
Jun 25
Last Quarter
Jul 2
New
Jul 9
First Quarter

Hourly Weather History & Observations

Time (EDT) Temp. Dew Point Humidity Pressure Visibility Wind Dir Wind Speed Gust Speed Precip Events Conditions
12:54 AM 57.0 °F 45.0 °F 64% 30.04 in 10.0 mi SSE 6.9 mph - N/A   Clear
1:54 AM 57.0 °F 44.1 °F 62% 30.02 in 10.0 mi SSW 4.6 mph - N/A   Clear
2:54 AM 54.0 °F 45.0 °F 72% 29.99 in 10.0 mi ENE 3.5 mph - N/A   Clear
3:54 AM 55.0 °F 46.9 °F 74% 29.98 in 10.0 mi South 10.4 mph - N/A   Clear
4:54 AM 53.1 °F 46.9 °F 80% 29.97 in 10.0 mi Calm Calm - N/A   Clear
5:54 AM 53.1 °F 48.0 °F 83% 29.95 in 10.0 mi Calm Calm - N/A   Clear
6:54 AM 55.0 °F 46.9 °F 74% 29.93 in 10.0 mi Variable 3.5 mph - N/A   Clear
7:54 AM 55.0 °F 46.9 °F 74% 29.94 in 10.0 mi ENE 4.6 mph - N/A   Overcast
8:54 AM 55.0 °F 44.1 °F 67% 29.93 in 10.0 mi Variable 3.5 mph - N/A   Overcast
9:54 AM 54.0 °F 44.1 °F 69% 29.94 in 9.0 mi East 5.8 mph - 0.00 in Rain Light Rain
10:54 AM 51.1 °F 46.9 °F 86% 29.91 in 3.0 mi East 4.6 mph - 0.12 in Rain Rain
11:11 AM 52.0 °F 48.0 °F 86% 29.94 in 2.5 mi East 5.8 mph - 0.07 in Rain Rain
11:40 AM 51.1 °F 48.0 °F 89% 29.90 in 3.0 mi ENE 9.2 mph 18.4 mph 0.18 in Rain Rain
11:54 AM 52.0 °F 48.0 °F 86% 29.86 in 5.0 mi ENE 6.9 mph - 0.21 in Rain Light Rain
12:37 PM 54.0 °F 50.0 °F 86% 29.84 in 10.0 mi ENE 10.4 mph 18.4 mph 0.02 in Rain Light Rain
12:54 PM 55.0 °F 50.0 °F 83% 29.78 in 10.0 mi ENE 12.7 mph 20.7 mph 0.02 in   Overcast
1:12 PM 55.9 °F 50.0 °F 80% 29.81 in 10.0 mi ENE 17.3 mph 25.3 mph N/A   Overcast
1:27 PM 55.9 °F 48.9 °F 77% 29.80 in 10.0 mi ENE 13.8 mph 31.1 mph N/A   Mostly Cloudy
1:50 PM 57.2 °F 50.0 °F 77% 29.79 in 10.0 mi East 11.5 mph 28.8 mph N/A   Mostly Cloudy
1:54 PM 59.0 °F 50.0 °F 72% 29.75 in 10.0 mi ENE 11.5 mph 27.6 mph N/A   Mostly Cloudy
2:54 PM 61.0 °F 50.0 °F 67% 29.72 in 10.0 mi East 10.4 mph 21.9 mph N/A   Mostly Cloudy
3:54 PM 59.0 °F 48.9 °F 69% 29.70 in 10.0 mi ENE 11.5 mph 20.7 mph N/A   Mostly Cloudy
4:54 PM 57.0 °F 48.9 °F 74% 29.70 in 10.0 mi ESE 11.5 mph 19.6 mph N/A   Overcast
5:54 PM 55.0 °F 48.0 °F 77% 29.71 in 10.0 mi ENE 6.9 mph - N/A   Overcast
7:54 PM 54.0 °F 48.0 °F 80% 29.72 in 10.0 mi East 4.6 mph - N/A   Overcast
8:54 PM 54.0 °F 48.9 °F 83% 29.72 in 10.0 mi East 3.5 mph - N/A   Overcast
9:54 PM 53.1 °F 48.9 °F 86% 29.72 in 10.0 mi Calm Calm - N/A   Overcast
10:54 PM 54.0 °F 48.9 °F 83% 29.72 in 10.0 mi Variable 3.5 mph - N/A   Overcast
11:52 PM 53.6 °F 48.2 °F 82% 29.75 in 10.0 mi SSE 3.5 mph - N/A   Overcast
11:54 PM 54.0 °F 48.9 °F 83% 29.73 in 10.0 mi SSE 4.6 mph - N/A   Overcast